Wind_Speed
28 27 26 25 25 24 22 22 22 22 22 22 21 20 19 19 18 17 16 14 14 13 13 12 12 11 12 12 11 11 11 13 14 16 13 9 9 12 12 12 12 13 15
29 27 26 23 23 23 24 23 22 24 24 23 22 21 20 20 19 19 18 17 18 16 14 13 14 13 14 12 12 13 13 12 15 15 16 16 14 13 14 15 15 16 17
26 27 27 26 25 25 24 23 23 23 24 24 22 22 22 21 20 20 20 19 17 16 15 15 15 14 15 14 13 14 14 13 14 17 19 17 17 15 15 16 17 17 18
24 26 27 28 28 26 24 22 22 24 24 25 25 23 21 18 19 20 19 18 19 17 16 16 16 17 17 15 14 15 17 16 16 17 19 19 18 16 16 17 19 18 18
24 25 27 26 26 24 24 23 22 22 23 24 24 23 23 21 21 20 20 21 20 17 17 16 17 17 19 18 16 15 17 17 18 19 20 19 19 16 12 13 19 20 21
23 24 24 24 25 26 25 24 24 24 24 24 25 24 24 24 23 21 21 20 18 18 19 20 20 22 23 23 23 23 22 18 18 17 20 20 19 16 17 17 18 15 15
20 22 23 24 27 29 27 25 25 25 23 23 24 25 25 24 23 20 23 21 19 20 21 18 17 18 17 16 16 17 20 23 26 23 19 20 19 16 13 14 14 15 19
18 21 22 24 26 25 26 26 25 22 23 23 23 24 24 24 25 26 27 24 23 24 21 18 15 15 16 13 14 14 16 13 13 15 17 16 13 10 9 11 13 15 18
17 18 21 23 25 26 30 30 32 27 23 22 23 24 26 26 25 27 27 23 23 25 23 19 18 16 15 14 11 14 17 14 16 16 14 13 15 16 14 9 11 11 14
14 17 21 23 25 28 25 23 21 21 20 19 19 21 25 24 24 26 28 23 23 23 21 19 22 19 15 13 13 13 16 13 9 6 4 4 4 5 6 4 7 9 8
12 17 20 21 26 27 23 18 18 17 18 18 18 20 23 22 22 24 25 23 24 21 21 15 16 15 12 11 10 7 8 8 9 7 6 4 2 1 2 2 2 2 2
10 14 18 21 23 23 22 16 20 21 17 12 15 19 22 24 23 23 26 28 24 21 19 15 14 14 12 11 10 9 10 9 8 9 8 6 5 3 4 5 5 5 3
13 12 17 19 24 23 24 22 20 20 22 18 16 19 24 24 23 26 26 25 27 16 13 14 15 14 13 12 13 10 9 10 11 10 8 6 5 6 6 4 3 2 1
13 13 17 22 21 22 25 23 25 25 21 16 23 37 25 16 14 19 19 22 23 15 16 14 13 14 12 10 9 11 10 11 11 10 9 8 7 6 5 4 3 4 3
13 15 16 11 18 22 23 20 24 24 25 23 29 25 18 18 20 21 22 21 18 17 15 15 15 12 11 11 12 13 12 11 11 10 10 9 8 7 7 6 5 5 6
14 17 13 8 10 20 23 13 15 19 21 21 22 19 18 17 19 25 26 24 23 22 15 15 15 15 15 15 16 16 15 14 12 11 10 10 10 10 9 7 6 6 8
16 15 12 7 15 12 12 18 16 19 22 23 23 27 28 23 22 25 26 24 23 22 16 16 16 16 17 18 18 18 17 13 10 11 12 12 12 11 8 10 9 8 9
19 18 16 11 13 13 17 18 17 21 14 12 17 20 23 20 24 25 26 22 22 20 17 17 18 19 19 19 19 17 15 12 14 12 12 14 14 13 12 12 10 10 10
19 19 17 17 17 18 20 16 8 10 10 15 17 20 21 18 22 27 28 20 21 19 17 17 17 18 18 17 17 15 14 16 14 13 14 13 13 12 15 14 12 9 7
21 23 21 17 18 19 20 18 17 14 13 16 14 17 19 22 22 25 22 19 18 19 18 17 18 18 17 15 15 15 16 15 16 15 14 13 12 13 12 11 11 11 9
21 19 16 18 17 18 18 18 19 22 21 24 16 19 27 24 22 22 22 21 19 17 16 18 15 13 13 15 15 16 17 17 16 16 14 13 11 11 10 10 10 11 10
21 20 17 16 16 17 14 15 18 20 21 22 20 18 21 26 23 22 23 22 20 18 18 18 19 20 19 18 18 19 18 18 18 12 12 12 10 9 8 8 8 10 11
21 19 18 13 14 14 17 17 17 20 20 19 18 21 20 27 24 21 21 22 21 19 19 17 18 16 15 17 20 20 18 18 12 12 13 13 12 10 10 10 10 11 12
18 19 18 17 15 16 16 17 18 21 19 22 21 19 18 26 22 18 18 19 20 19 19 19 18 17 18 20 18 15 17 16 13 14 13 12 12 11 12 12 13 13 13
16 16 17 17 16 16 16 16 18 22 22 23 25 22 20 24 21 19 20 19 18 18 17 18 18 16 15 14 18 18 14 13 12 11 8 12 14 14 15 15 14 15 16
11 13 15 16 16 19 18 19 21 23 23 26 25 22 25 24 22 22 21 19 18 18 17 16 14 12 14 15 14 12 13 15 15 18 16 16 16 15 15 16 18 19 19
Wind_Direction
202 202 202 205 205 206 208 210 212 213 212 212 208 207 211 216 218 220 226 233 230 236 243 246 246 250 256 258 253 255 263 254 262 273 281 286 276 291 285 283 280 271 265
202 201 202 203 204 206 210 211 211 211 211 213 212 211 216 221 220 219 222 225 228 230 234 238 244 248 247 252 256 256 260 257 252 264 274 281 272 278 278 274 273 273 273
203 202 201 199 201 207 209 210 210 209 209 213 213 216 220 224 224 225 224 224 226 227 231 235 241 240 242 249 253 265 254 246 245 256 268 270 274 277 278 275 274 275 274
206 205 203 203 203 204 205 208 210 210 208 210 213 216 221 224 225 226 227 224 225 229 235 238 239 237 235 237 247 254 253 249 246 247 262 268 269 271 267 278 283 278 275
208 208 207 205 204 202 202 202 206 211 213 213 216 218 220 224 226 225 226 228 228 232 238 239 238 236 234 234 244 252 253 250 253 260 264 270 272 281 291 297 299 290 288
217 214 209 206 202 199 198 200 198 204 208 212 218 222 225 230 232 231 227 229 234 239 244 245 242 238 239 243 248 251 252 258 266 277 282 294 291 283 280 286 285 287 283
221 217 211 208 205 203 201 200 200 200 205 212 220 225 229 233 238 241 241 239 246 248 253 256 257 260 246 244 256 266 263 255 251 256 265 271 282 279 278 276 277 282 278
224 221 215 211 216 206 200 203 201 204 205 210 218 222 227 232 234 237 242 243 246 253 254 252 252 260 265 256 259 259 261 255 250 250 255 263 271 276 277 280 284 286 288
225 223 220 215 216 211 209 203 193 196 202 211 218 223 223 228 232 237 240 241 244 246 248 249 244 247 256 256 258 265 262 252 245 256 247 252 268 280 291 295 295 303 300
233 226 220 218 214 219 216 211 214 200 191 207 215 225 233 231 231 236 240 234 237 240 241 245 252 243 242 264 260 257 254 225 220 215 241 302 321 302 352 336 308 301 314
269 234 226 220 219 228 224 213 200 203 201 204 221 222 230 228 228 234 234 224 236 238 244 239 241 254 252 251 234 231 237 201 219 217 220 220 211 128 46 18 349 304 305
307 255 230 223 225 229 228 217 212 215 210 208 232 232 228 226 221 229 230 232 227 230 233 239 231 234 222 211 204 220 233 218 220 208 192 187 170 133 104 97 95 100 70
290 280 235 226 222 221 218 213 216 205 202 206 263 277 236 222 222 226 231 230 217 221 225 215 218 202 203 212 222 237 216 202 204 194 186 170 164 157 148 140 149 167 84
290 274 259 228 228 220 208 206 217 207 196 205 223 252 236 219 215 226 214 197 197 198 200 201 198 194 187 203 211 196 195 201 198 194 185 178 175 185 197 201 196 195 232
279 279 265 257 209 218 220 202 208 216 207 200 213 213 198 209 209 202 192 189 194 197 185 184 180 181 189 195 194 194 194 191 187 189 190 189 193 203 211 221 229 233 259
273 269 268 258 208 202 191 159 183 206 212 210 208 205 205 212 206 198 187 188 192 199 182 179 189 200 206 200 195 192 193 194 196 198 203 206 210 217 220 226 237 257 277
268 268 270 241 219 195 178 157 166 177 183 194 221 199 186 204 197 201 195 196 199 187 192 196 199 202 203 202 200 197 196 200 203 214 215 217 223 230 225 240 230 241 259
265 258 261 232 221 214 197 191 178 177 185 242 238 215 197 193 192 191 185 179 170 189 201 197 202 202 206 204 202 201 204 201 215 222 223 224 227 235 240 240 244 248 259
257 254 249 241 225 221 215 203 200 220 197 211 211 212 203 194 187 185 183 176 180 196 212 210 206 203 201 199 203 211 219 221 220 225 223 228 225 225 241 245 245 250 276
247 247 254 245 233 224 220 215 209 233 234 217 204 196 182 174 167 175 186 190 191 201 211 219 206 206 203 196 205 214 217 217 217 224 232 232 236 238 235 238 259 260 234
246 245 227 234 229 224 223 216 213 220 223 229 212 199 189 176 185 188 197 203 199 205 211 214 214 217 218 207 212 217 220 212 214 222 234 233 238 236 230 238 232 251 253
241 239 237 233 233 226 232 224 218 222 223 222 209 191 195 190 200 201 203 211 209 211 209 217 218 213 215 213 215 219 219 220 223 218 221 221 220 226 236 233 237 240 252
236 231 230 222 234 227 227 232 230 229 224 225 212 169 185 201 208 199 210 214 214 214 218 216 220 225 225 217 214 217 219 227 216 213 213 216 220 225 227 233 240 243 246
217 225 225 219 207 216 221 225 220 226 235 220 209 177 189 198 206 205 208 207 209 209 211 215 216 210 211 210 206 212 222 219 212 211 217 230 230 218 237 250 248 247 255
204 210 220 222 222 221 229 231 228 220 226 234 203 187 190 194 199 199 202 198 196 197 199 202 201 197 207 208 213 214 204 207 221 241 235 235 245 243 245 248 244 252 258
207 206 215 224 228 229 234 236 229 226 214 226 206 186 187 184 187 189 188 187 186 188 185 194 197 201 204 204 217 220 214 220 227 232 231 246 247 243 244 250 254 261 266
Height
774 779 785 790 794 799 803 807 810 813 816 819 822 824 827 830 833 835 836 838 841 842 843 843 845 847 846 844 844 843 845 845 843 840 837 837 839 839 838 838 837 836 835
767 774 779 785 790 794 798 801 805 808 811 815 818 820 822 825 828 829 831 832 835 837 838 840 840 842 842 843 842 842 841 841 842 839 837 836 835 835 834 834 833 831 830
762 767 772 777 782 787 791 795 799 802 806 809 812 815 818 820 822 825 826 827 829 831 832 834 834 836 837 837 836 837 835 836 837 837 834 831 829 829 829 829 828 827 826
758 761 765 769 773 778 784 790 793 797 800 803 807 810 814 817 819 820 821 823 824 825 826 827 828 829 830 831 832 831 831 831 830 830 827 824 823 822 822 823 822 820 818
754 757 760 765 770 774 778 782 788 793 796 799 803 806 808 810 812 815 817 818 818 819 821 822 822 822 823 824 825 825 825 826 824 822 819 818 816 816 818 820 820 818 816
750 753 757 761 764 767 770 775 779 784 788 793 797 801 804 805 806 809 811 814 815 816 816 817 816 815 815 816 817 818 820 821 821 821 818 817 818 818 818 817 817 816 813
746 749 751 755 756 759 764 769 771 774 781 785 790 795 798 800 802 804 806 809 811 811 812 814 814 814 814 812 813 813 813 813 815 816 816 816 815 816 815 814 813 812 810
740 744 746 750 754 756 758 762 764 770 774 778 783 788 791 794 796 798 800 802 805 806 808 808 809 810 811 809 808 808 810 809 809 810 810 812 812 812 811 810 808 807 804
736 738 741 744 748 750 750 751 752 759 765 770 775 781 783 785 789 791 794 797 798 798 801 802 803 804 804 803 802 805 805 806 804 805 806 806 806 806 805 805 804 802 800
733 734 736 738 741 743 746 750 755 757 756 765 768 774 778 779 782 784 787 790 790 791 793 796 795 796 796 796 797 799 800 801 803 803 802 802 803 803 802 803 803 801 801
731 730 730 731 734 736 743 748 751 753 754 756 760 765 770 772 775 776 778 782 783 785 787 789 791 789 790 792 793 795 797 799 800 801 801 802 803 803 802 802 802 802 802
728 726 725 725 727 729 734 741 744 746 749 751 757 759 761 765 767 768 771 774 777 779 782 784 785 786 787 790 792 792 794 796 797 798 798 800 801 802 802 803 802 802 801
727 723 718 717 717 719 725 733 737 740 740 745 748 755 758 756 758 762 765 767 771 775 779 780 780 783 786 788 789 791 792 794 795 795 796 798 800 801 801 802 802 801 800
723 719 711 709 714 716 711 719 726 731 736 738 740 738 756 751 753 756 760 763 767 771 773 776 778 781 783 787 787 789 791 792 792 793 795 797 799 800 799 799 798 798 797
720 712 710 712 697 708 720 712 717 721 726 732 740 744 744 747 747 750 754 759 763 767 771 772 775 779 782 784 786 787 789 791 791 793 794 794 795 797 797 797 797 796 796
715 708 704 709 708 708 706 706 714 719 723 725 731 735 737 740 743 747 751 753 757 761 768 770 774 776 778 780 782 784 786 787 788 789 789 791 792 793 793 796 795 795 793
711 708 702 703 705 707 701 701 711 719 719 720 729 720 723 730 735 741 746 751 754 758 762 768 769 770 773 776 778 780 782 784 786 787 787 788 790 790 792 790 790 790 789
707 705 704 705 707 704 706 707 707 710 717 721 730 731 728 727 730 735 741 749 754 756 755 758 762 764 767 769 772 774 777 780 783 783 784 785 786 787 787 786 786 786 785
702 699 698 700 702 705 707 705 706 711 712 720 726 729 729 728 730 735 738 743 748 753 754 753 757 760 763 765 768 771 775 777 779 781 782 782 783 785 784 782 780 782 784
694 693 693 693 696 699 702 700 702 708 711 717 721 722 723 727 730 735 739 740 744 747 750 751 753 756 757 761 765 769 772 774 776 777 777 777 779 779 780 781 781 779 780
686 685 686 689 690 692 695 696 700 704 707 708 712 714 715 721 727 732 737 739 741 743 745 750 751 755 756 758 762 765 768 769 771 772 773 775 776 775 776 776 776 778 777
680 679 679 681 682 685 686 688 693 695 697 698 701 707 712 717 722 727 731 735 737 739 743 747 747 748 752 755 758 761 763 764 764 765 768 770 772 772 772 772 772 772 773
673 673 674 678 681 681 684 686 688 690 692 692 695 701 708 713 714 720 725 730 734 736 739 741 744 745 747 751 753 755 757 759 760 762 763 764 765 766 766 767 767 767 767
668 669 668 671 675 679 680 682 685 687 688 688 690 694 702 708 707 712 718 723 727 730 733 735 738 741 743 747 749 751 752 753 756 757 760 760 760 760 762 761 760 759 760
662 665 665 666 668 671 673 676 677 679 682 683 682 687 696 702 706 711 716 719 722 725 727 731 733 735 739 744 746 747 746 749 753 754 755 756 756 755 754 752 752 753 754
655 658 661 663 666 666 667 669 672 673 675 678 675 682 691 696 702 707 711 714 716 720 722 727 730 732 735 739 740 742 745 747 749 752 754 754 752 750 750 750 749 749 748